Location: Sobotiste
(48.7170°N, 17.4000°E)
Time: 08:15:15
(UTC+02:00)

YUBILEINY - Pass Details

Date: 17 March 2026
Orbit: 1477 x 1509 km, 82.5° (Epoch: 13 April)

Event Time Altitude Azimuth Distance (km) Brightness Sun altitude
Rises 00:18:13 0° 352° (N) 4,624 ? -42.5°
Reaches altitude 10° 00:22:58 10° 14° (NNE) 3,635 ? -42.4°
Maximum altitude 00:27:39 15° 47° (NE) 3,230 ? -42.3°
Drops below altitude 10° 00:32:18 10° 81° (E) 3,620 ? -42.2°
Sets 00:36:58 0° 103° (ESE) 4,593 ? -42.0°
